www.pogodaiklimat.ru

Погода и климат >> Архив погоды >> Австралия >> Sydney


АРХИВ ПОГОДЫ в Sydney

Время (UTC), дата Ветер
(напр.,м/с)
 
Видим.   Явления Облачность Т
(С)
Тd
(С)
f
(%)
Тe
(С)
Тes
(С)
Комфортность P
(гПа)
Po
(гПа)
Тmin
(С)
Tmax
(С)
R
(мм)
R24
(мм)
S
(см)
11 9.10 0 н/о н/о +19.1 +15.0 77 1011.6 1006.9
10 9.10 0 н/о н/о +19.1 +14.8 76 1011.5 1006.8
13 9.10 0 н/о н/о +19.1 +15.4 79 1012.9 1008.2 +23.3
14 9.10 0 н/о н/о +18.7 +14.6 77 1012.7 1008.0
17 9.10 0 н/о н/о +17.6 +11.9 69 1013.2 1008.5
16 9.10 0 н/о н/о +17.8 +11.1 65 1012.7 1008.0
19 9.10 0 н/о н/о +16.5 +13.0 80 1013.8 1009.1
20 9.10 0 н/о н/о +16.7 +13.0 79 1014.6 1009.9
23 9.10 0 н/о н/о +17.1 +12.6 75 1017.3 1012.5
22 9.10 0 н/о н/о +16.9 +12.8 77 1016.3 1011.5
01 10.10 0 н/о туман н/о +15.0 +12.0 82 1019.0 1014.2 +16.3
02 10.10 0 н/о н/о +14.9 +12.8 87 1018.3 1013.5
05 10.10 0 н/о н/о +14.7 +9.9 73 1019.6 1014.8
04 10.10 0 н/о {туман} н/о +15.5 +10.5 72 1019.9 1015.1
07 10.10 0 н/о в посл. час дождь {туман} н/о +14.9 +8.6 66 1019.9 1015.1
08 10.10 0 н/о н/о +15.3 +7.3 59 1020.7 1015.9
11 10.10 0 н/о н/о +14.0 +8.2 68 1022.4 1017.6
10 10.10 0 н/о {туман} н/о +14.4 +8.6 68 1021.9 1017.1
13 10.10 0 н/о в посл. час дождь {туман} н/о +14.1 +7.4 64 1022.8 1018.0 +19.3
14 10.10 0 н/о н/о +14.1 +7.6 65 1022.9 1018.1
17 10.10 0 н/о н/о +14.1 +6.9 62 1021.7 1016.9
16 10.10 0 н/о {туман} н/о +14.0 +7.5 65 1022.2 1017.4
19 10.10 0 н/о н/о +13.9 +7.9 67 1022.3 1017.5
20 10.10 0 н/о н/о +13.5 +8.4 71 1022.9 1018.1
23 10.10 0 н/о н/о +16.1 +7.8 58 1024.6 1019.8
22 10.10 0 н/о в посл. час дождь {туман} н/о +14.6 +9.4 71 1024.1 1019.3
01 11.10 0 н/о в посл. час дождь {туман} н/о +17.0 +10.6 66 1024.3 1019.5 +13.5
02 11.10 0 н/о н/о +18.0 +8.6 54 1023.8 1019.0
05 11.10 0 н/о н/о +15.7 +10.7 72 1023.3 1018.5
04 11.10 0 н/о туман местами н/о +15.1 +10.3 73 1023.7 1018.9
07 11.10 0 н/о в посл. час дождь {туман} н/о +14.1 +10.5 79 1024.0 1019.2
08 11.10 0 н/о н/о +13.3 +10.3 82 1024.5 1019.7
11 11.10 0 н/о н/о +13.4 +10.2 81 1026.0 1021.2
10 11.10 0 н/о {туман} н/о +13.3 +9.9 80 1025.6 1020.8
13 11.10 0 н/о в посл. час дождь {туман} н/о +13.5 +10.9 84 1026.4 1021.6 +19.4
14 11.10 0 н/о н/о +13.4 +10.2 81 1026.2 1021.4
17 11.10 0 н/о н/о +12.9 +10.8 87 1024.7 1019.9
16 11.10 0 н/о в посл. час дождь {туман} н/о +13.1 +10.5 84 1025.4 1020.6
19 11.10 0 н/о в посл. час дождь {туман} н/о +13.3 +11.0 86 1025.2 1020.4
20 11.10 0 н/о н/о +13.5 +11.0 85 1026.3 1021.5
23 11.10 0 н/о н/о +15.3 +12.1 81 1027.7 1022.9
22 11.10 0 н/о {туман} н/о +14.3 +10.7 79 1027.4 1022.6
01 12.10 0 н/о в посл. час дождь {туман} н/о +17.7 +9.6 59 1027.4 1022.6 +12.9
02 12.10 0 н/о н/о +17.9 +9.3 57 1026.7 1021.9
05 12.10 0 н/о н/о +15.1 +10.9 76 1025.3 1020.5
04 12.10 0 н/о {туман} н/о +17.5 +10.9 65 1025.8 1021.0
07 12.10 0 н/о в посл. час дождь {туман} н/о +14.7 +10.3 75 1025.8 1021.0
08 12.10 0 н/о н/о +14.8 +9.8 72 1025.9 1021.1
11 12.10 0 н/о н/о +14.4 +10.0 75 1026.1 1021.3
10 12.10 0 н/о {туман} н/о +14.9 +10.1 73 1026.2 1021.4
13 12.10 0 н/о н/о +14.0 +11.2 83 1026.0 1021.2 +18.7
14 12.10 0 н/о н/о +13.6 +11.1 85 1025.8 1021.0
17 12.10 0 н/о н/о +12.6 +10.5 87 1024.8 1020.0
16 12.10 0 н/о {туман} н/о +13.0 +10.7 86 1024.9 1020.1
19 12.10 0 н/о н/о +12.2 +10.1 87 1025.1 1020.3
20 12.10 0 н/о н/о +12.4 +10.5 88 1025.4 1020.6
23 12.10 0 н/о н/о +17.3 +13.2 77 1026.5 1021.7
22 12.10 0 н/о в посл. час дождь {туман} н/о +13.6 +11.7 88 1026.6 1021.8
01 13.10 0 н/о н/о +19.0 +10.6 58 1025.8 1021.0 +12.2
02 13.10 0 н/о н/о +19.5 +11.0 58 1025.3 1020.5
05 13.10 0 н/о н/о +18.1 +13.0 72 1024.0 1019.2
04 13.10 0 н/о туман н/о +17.3 +13.2 77 1024.5 1019.7
07 13.10 0 н/о н/о +17.8 +12.3 70 1024.3 1019.5
08 13.10 0 н/о н/о +17.1 +12.0 72 1024.7 1019.9
11 13.10 0 н/о н/о +16.8 +12.1 74 1025.3 1020.5
10 13.10 0 н/о н/о +17.8 +11.6 67 1025.3 1020.5
13 13.10 0 н/о туман местами н/о +17.3 +11.8 70 1025.3 1020.5 +20.3
14 13.10 0 н/о н/о +16.5 +12.5 77 1025.3 1020.5
17 13.10 0 н/о н/о +16.5 +12.3 76 1025.1 1020.3
16 13.10 0 н/о туман местами н/о +16.5 +12.3 76 1025.1 1020.3
19 13.10 0 н/о туман местами н/о +16.4 +12.2 76 1025.8 1021.0
20 13.10 0 н/о н/о +16.8 +12.3 75 1026.2 1021.4
23 13.10 0 н/о н/о +19.9 +12.4 62 1027.0 1022.2
22 13.10 0 н/о {туман} н/о +18.1 +12.3 69 1026.7 1021.9
01 14.10 0 н/о н/о +20.4 +12.4 60 1026.4 1021.6 +16.1
02 14.10 0 н/о н/о +20.3 +12.3 60 1026.0 1021.2
05 14.10 0 н/о н/о +20.0 +12.5 62 1024.7 1019.9
04 14.10 0 н/о н/о +19.9 +12.2 61 1024.9 1020.1
07 14.10 0 н/о н/о +18.8 +12.5 67 1025.6 1020.8
08 14.10 0 н/о н/о +17.6 +13.1 75 1026.2 1021.4
11 14.10 0 н/о н/о +16.8 +13.9 83 1027.1 1022.3
10 14.10 0 н/о {туман} н/о +17.2 +13.5 79 1027.1 1022.3
13 14.10 0 н/о {туман} н/о +17.7 +13.6 77 1026.7 1021.9 +21.2
14 14.10 0 н/о н/о +17.7 +13.4 76 1026.4 1021.6
17 14.10 0 н/о н/о +15.9 +13.6 86 1025.2 1020.4
16 14.10 0 н/о в посл. час дождь {туман} н/о +15.9 +13.0 83 1025.3 1020.5
19 14.10 0 н/о н/о +15.5 +13.5 88 1025.3 1020.5
20 14.10 0 н/о н/о +15.6 +13.8 89 1025.9 1021.1
23 14.10 0 н/о н/о +17.2 +15.2 88 1026.7 1021.9
22 14.10 0 н/о туман местами н/о +17.1 +15.4 90 1026.6 1021.8
01 15.10 0 н/о в посл. час дождь {туман} н/о +19.0 +16.2 84 1025.5 1020.7 +15.6
02 15.10 0 н/о н/о +19.4 +15.9 80 1025.0 1020.2
05 15.10 0 н/о н/о +21.1 +14.7 67 1023.3 1018.5
04 15.10 0 н/о {туман} н/о +21.0 +14.4 66 1023.7 1018.9
07 15.10 0 н/о н/о +20.1 +14.7 71 1023.4 1018.6
08 15.10 0 н/о н/о +19.4 +14.6 74 1023.9 1019.1
11 15.10 0 н/о н/о +19.0 +14.9 77 1025.0 1020.2
10 15.10 0 н/о н/о +19.2 +14.9 76 1024.8 1020.0
13 15.10 0 н/о н/о +18.6 +15.3 81 1024.5 1019.7 +21.7
14 15.10 0 н/о н/о +18.2 +14.7 80 1024.3 1019.5
17 15.10 0 н/о н/о +17.8 +15.2 85 1022.5 1017.7
16 15.10 0 н/о туман местами н/о +18.0 +15.1 83 1022.9 1018.1
19 15.10 0 н/о {туман} н/о +17.9 +15.0 83 1022.7 1017.9
20 15.10 0 н/о н/о +18.4 +15.3 82 1023.0 1018.2
23 15.10 0 н/о н/о +21.4 +14.3 64 1023.7 1018.9
22 15.10 0 н/о {туман} н/о +20.5 +14.8 70 1023.5 1018.7
01 16.10 0 н/о н/о +22.3 +14.7 62 1022.6 1017.8 +17.5
02 16.10 0 н/о н/о +22.2 +14.8 63 1021.8 1017.0
05 16.10 0 н/о н/о +21.4 +15.3 68 1019.7 1014.9
04 16.10 0 н/о н/о +22.0 +15.1 65 1020.3 1015.5
07 16.10 0 н/о н/о +20.7 +15.3 71 1019.4 1014.6
08 16.10 0 н/о н/о +19.9 +15.3 75 1019.1 1014.3
10 16.10 0 н/о н/о +19.3 +15.0 76 1019.7 1014.9

 

Местоположение метеостанции Sydney (Новый Южный Уэльс, Австралия): широта -33.93 долгота 151.18 высота над уровнем моря 5 м.

В архиве по умолчанию представлена погода в Sydney за последнюю неделю. Архивные данные за месяц целиком и за предыдущие месяцы, начиная с января 2011 года, Вы можете получить, выбрав интересующий диапазон дат из раскрывающегося списка и нажав кнопку "Ввод!".


*Определитесь, кто Вы:
робот инопланетянин человек

Внимание! Время в таблицах - всемирное. Для получения местного времени необходимо прибавить поправку, которая в Sydney равна 10 ч.

Смотрите также архив погоды в соседних городах и на ближайших метеорологических станциях:

Погода в Sydney Airport (Новый Южный Уэльс, Австралия) (2 км)
Погода в Canterbury Racecourse Aws (Новый Южный Уэльс, Австралия) (6 км)
Погода в Kurnell Aws (Новый Южный Уэльс, Австралия) (8 км)
Погода в Little Bay (the Coast Golf Club) (Новый Южный Уэльс, Австралия) (9 км)
Погода в Sydney Olympic Park (Новый Южный Уэльс, Австралия) (15 км)
Погода в Bankstown Airport Aws (Новый Южный Уэльс, Австралия) (18 км)
Погода в Wattamolla Aws (Новый Южный Уэльс, Австралия) (23 км)
Погода в Holsworthy Control Range (Новый Южный Уэльс, Австралия) (25 км)
Погода в Terrey Hills Reserv (Новый Южный Уэльс, Австралия) (28 км)
Погода в Horsley Park Equestrian Center (Новый Южный Уэльс, Австралия) (32 км)

Пояснения к столбцам:

Ветер - указаны скорость ветра в м/с - средняя за 10 мин, порывы в срок и между сроками (в фигурных скобках) и направление, откуда дует ветер: С - северный, СВ - северо-восточный, В - восточный, ЮВ - юго-восточный, Ю - южный, ЮЗ - юго-западный, З - западный, СЗ - северо-западный.
Видимость - горизонтальная дальность видимости в метрах или километрах. При видимости от 1 до 10 км при отсутствии осадков обычно наблюдается дымка, при ухудшении видимости до 1 км и менее - туман. В сухую погоду видимость может ухудшаться дымом, пылью или мглою.
Явления - указаны атмосферные явления, наблюдавшиеся в срок или в последний час перед сроком; фигурными скобками обозначены явления, наблюдавшиеся между сроками (за 1-3 часа до срока); квадратными скобками обозначены град или гололедные отложения с указанием их диаметра в мм.
Облачность - указаны через наклонную черту общая и нижняя облачность в баллах и высота нижней границы облаков в метрах; квадратными скобками обозначены формы облаков: Ci - перистые, Cs - перисто-слоистые, Cc - перисто-кучевые, Ac - высококучевые, As - высокослоистые, Sc - слоисто-кучевые, Ns - слоисто-дождевые, Cu - кучевые, Cb - кучево-дождевые. Подробнее классификацию облаков см. в Атласе облаков (PDF).
T - Температура воздуха - температура, измеренная на высоте 2 м над землей.
Td - Температура точки росы - температура, при понижении до которой содержащийся в воздухе водяной пар достигнет насыщения.
f - Относительная влажность воздуха - влажноcть воздуха, измеренная на высоте 2 м над землей.
Te - Эффективная температура - температура, которую ощущает одетый по сезону человек в тени. Характеристика душности погоды. При расчете учитывается влияние влажности воздуха и скорости ветра на теплоощущения человека.
Tes - Эффективная температура на солнце - температура, которую ощущает человек, с поправкой на солнечный нагрев. Характеристика знойности погоды. Зависит от высоты солнца над горизонтом, облачности и скорости ветра. Ночью, в пасмурную погоду, а также при ветре 12 м/с и более поправка равна нулю.
P - Атмосферное давление - приведенное к уровню моря атмосферное давление.
Po - Атмосферное давление - измеренное на уровне метеостанции атмосферное давление.
Tmin - Минимальная температура - минимум температуры воздуха на высоте 2 м над землей.
Tmax - Максимальная температура - максимум температуры воздуха на высоте 2 м над землей.
R - Количество осадков - Количество выпавших осадков за период времени, мм. При наведении курсора мыши на число - период времени, за который выпало указанное количество осадков.
R24 - Количество осадков - Количество выпавших осадков за 24 часа, мм.
S - Снежный покров - Высота снежного покрова, см. При наведении курсора мыши на число - состояние снежного покрова и степень покрытия местности в баллах.